Milford, UT

10:42 PM MST on December 11, 2017 (GMT -0700)
Milford Municipal

Weather History for KMLF - January, 2013

Change the Weather History Date:

Thursday, January 3, 2013

  Actual Average Record
Temperature  
Mean Temperature 3 °F -  
Max Temperature 12 °F 38 °F 61 °F (2012)
Min Temperature -7 °F 17 °F -7 °F (2013)
Degree Days  
Heating Degree Days 62    
Moisture  
Dew Point -3 °F    
Average Humidity 82    
Maximum Humidity 100    
Minimum Humidity 62    
Precipitation  
Precipitation 0.00 in - - ()
Sea Level Pressure  
Sea Level Pressure 30.52 in    
Wind  
Wind Speed 6 mph (North)    
Max Wind Speed 10 mph    
Max Gust Speed -    
Visibility 4 miles    
Events Fog , Snow    
Averages and records for this station are not official NWS values.
T = Trace of Precipitation, MM = Missing Value Source: NWS Daily Summary

Daily Weather History Graph

Daily Weather History Graph

Search for Another Location

Airport or City:

Trip Planner

Search our weather history database for the weather conditions in past years. The results will help you decide how hot, cold, wet, or windy it might be!

Date:

Astronomy

Jan. 03, 2013 Rise Set
Actual Time 7:49 AM MST 5:24 PM MST
Civil Twilight 7:20 AM MST 5:53 PM MST
Nautical Twilight 6:47 AM MST 6:26 PM MST
Astronomical Twilight 6:14 AM MST 6:58 PM MST
Moon 11:58 PM MST (1/3) 11:08 AM MST (1/3)
Length of Visible Light 10h 33m
Length of Day
9h 34m
Waning Gibbous, 65% of the Moon is Illuminated
Jan 3
Waning Gibbous
Jan 4
Last Quarter
Jan 11
New
Jan 18
First Quarter
Jan 26
Full

Hourly Weather History & Observations

Time (MST) Temp. Windchill Dew Point Humidity Pressure Visibility Wind Dir Wind Speed Gust Speed Precip Events Conditions
12:52 AM -7.1 °F -23.9 °F -11.9 °F 79% 30.61 in 7.0 mi NE 9.2 mph - N/A   Clear
1:52 AM -7.1 °F -19.9 °F -11.0 °F 83% 30.61 in 6.0 mi NNE 5.8 mph - N/A   Clear
2:10 AM -7.6 °F -18.8 °F -11.2 °F 84% 30.37 in 5.0 mi NNE 4.6 mph - N/A   Scattered Clouds
2:19 AM -5.8 °F -18.4 °F -9.4 °F 84% 30.37 in 5.0 mi NNE 5.8 mph - N/A   Mostly Cloudy
2:33 AM -4.0 °F -12.4 °F -9.4 °F 78% 30.37 in 2.5 mi North 3.5 mph - 0.00 in Snow Light Snow
2:41 AM -4.0 °F -12.4 °F -7.6 °F 85% 30.37 in 4.0 mi NNE 3.5 mph - 0.00 in   Overcast
2:52 AM -2.0 °F -15.4 °F -7.1 °F 79% 30.60 in 6.0 mi North 6.9 mph - 0.00 in   Haze
3:22 AM -2.2 °F -15.6 °F -7.6 °F 78% 30.37 in 2.5 mi North 6.9 mph - 0.00 in Snow Light Snow
3:41 AM -2.2 °F -16.8 °F -5.8 °F 85% 30.37 in 0.8 mi NNW 8.1 mph - 0.00 in Snow Light Snow
3:52 AM -0.9 °F -16.4 °F -4.0 °F 87% 30.60 in 0.8 mi NNW 9.2 mph - 0.00 in Snow Light Snow
4:06 AM -0.4 °F -14.7 °F -4.0 °F 85% 30.36 in 1.5 mi NNW 8.1 mph - 0.00 in Snow Light Snow
4:11 AM -0.4 °F -14.7 °F -4.0 °F 85% 30.36 in 2.0 mi NNW 8.1 mph - 0.00 in Snow Light Snow
4:36 AM 1.4 °F -9.9 °F -2.2 °F 85% 30.36 in 2.0 mi NNW 5.8 mph - 0.00 in   Overcast
4:41 AM 1.4 °F -9.9 °F -2.2 °F 85% 30.37 in 2.5 mi NNW 5.8 mph - 0.00 in   Overcast
4:52 AM 1.9 °F -10.6 °F -2.0 °F 83% 30.60 in 2.0 mi NNW 6.9 mph - 0.00 in Snow Light Snow
4:59 AM 1.4 °F -11.3 °F -2.2 °F 85% 30.37 in 1.8 mi NNW 6.9 mph - 0.00 in Snow Light Snow
5:05 AM 1.4 °F -11.3 °F -2.2 °F 85% 30.37 in 1.5 mi North 6.9 mph - 0.00 in   Overcast
5:14 AM 1.4 °F -12.5 °F -0.4 °F 92% 30.37 in 2.0 mi North 8.1 mph - 0.00 in   Overcast
5:29 AM 1.4 °F -12.5 °F -0.4 °F 92% 30.37 in 1.2 mi North 8.1 mph - 0.00 in   Overcast
5:46 AM 1.4 °F -14.5 °F -0.4 °F 92% 30.37 in 0.8 mi North 10.4 mph - 0.00 in   Mist
5:52 AM 1.9 °F -12.9 °F -0.9 °F 88% 30.63 in 1.0 mi North 9.2 mph - 0.00 in   Mist
6:01 AM 1.4 °F -13.5 °F -2.2 °F 85% 30.38 in 1.8 mi North 9.2 mph - N/A   Overcast
6:11 AM 1.4 °F -12.5 °F -2.2 °F 85% 30.38 in 2.5 mi North 8.1 mph - N/A   Overcast
6:20 AM 1.4 °F -12.5 °F -2.2 °F 85% 30.38 in 3.0 mi North 8.1 mph - N/A   Overcast
6:52 AM 1.9 °F -11.8 °F -2.0 °F 83% 30.65 in 1.8 mi North 8.1 mph - N/A   Overcast
6:59 AM 1.4 °F -12.5 °F -2.2 °F 85% 30.39 in 2.0 mi NNE 8.1 mph - N/A   Overcast
7:14 AM 1.4 °F -9.9 °F -2.2 °F 85% 30.39 in 1.5 mi North 5.8 mph - N/A   Overcast
7:20 AM 1.4 °F -12.5 °F -2.2 °F 85% 30.39 in 2.0 mi NNE 8.1 mph - N/A   Overcast
7:35 AM 1.4 °F -9.9 °F -2.2 °F 85% 30.39 in 0.8 mi North 5.8 mph - N/A   Overcast
7:52 AM 1.0 °F -10.3 °F -2.0 °F 87% 30.67 in 0.8 mi North 5.8 mph - N/A   Mist
8:52 AM 1.9 °F -10.6 °F -2.0 °F 83% 30.70 in 0.5 mi North 6.9 mph - 0.00 in Fog Light Freezing Fog
9:27 AM 1.4 °F -9.9 °F -0.4 °F 92% 30.42 in 1.2 mi NE 5.8 mph - N/A   Overcast
9:35 AM 3.2 °F -4.2 °F -0.4 °F 85% 30.42 in 1.5 mi NE 3.5 mph - N/A   Overcast
9:47 AM 3.2 °F - 1.4 °F 92% 30.42 in 1.8 mi Calm Calm - N/A   Overcast
9:52 AM 3.0 °F - 1.9 °F 95% 30.71 in 1.5 mi Calm Calm - N/A   Overcast
10:04 AM 3.2 °F - 3.2 °F 100% 30.42 in 2.0 mi Calm Calm - 0.00 in   Overcast
10:15 AM 5.0 °F - 3.2 °F 92% 30.42 in 4.0 mi Calm Calm - 0.00 in   Overcast
10:22 AM 5.0 °F - 3.2 °F 92% 30.42 in 5.0 mi Calm Calm - 0.00 in   Overcast
10:39 AM 6.8 °F - 1.4 °F 79% 30.42 in 2.5 mi Calm Calm - 0.00 in Snow Light Snow
10:52 AM 5.0 °F -4.1 °F -0.0 °F 80% 30.71 in 3.0 mi NE 4.6 mph - 0.00 in Snow Light Snow
11:14 AM 6.8 °F -0.1 °F 1.4 °F 79% 30.42 in 4.0 mi Variable 3.5 mph - 0.00 in Snow Light Snow
11:39 AM 6.8 °F -0.1 °F 1.4 °F 79% 30.41 in 6.0 mi NE 3.5 mph - 0.00 in Snow Light Snow
11:52 AM 7.0 °F - 1.9 °F 80% 30.70 in 6.0 mi Calm Calm - 0.00 in Snow Light Snow
12:52 PM 8.1 °F -0.5 °F 1.9 °F 76% 30.66 in 9.0 mi NE 4.6 mph - 0.00 in Snow Light Snow
1:52 PM 9.0 °F -0.9 °F 3.0 °F 77% 30.63 in 10.0 mi NE 5.8 mph - 0.00 in   Clear
2:52 PM 10.9 °F -2.6 °F 3.0 °F 70% 30.59 in 10.0 mi NNE 10.4 mph - N/A   Clear
3:52 PM 12.0 °F -0.4 °F 3.0 °F 67% 30.58 in 10.0 mi North 9.2 mph - N/A   Clear
4:52 PM 10.0 °F 0.4 °F 3.0 °F 73% 30.59 in 10.0 mi NNE 5.8 mph - N/A   Clear
5:52 PM 1.9 °F -10.6 °F -2.9 °F 80% 30.63 in 10.0 mi North 6.9 mph - N/A   Clear
6:52 PM 1.0 °F -14.0 °F -2.9 °F 83% 30.64 in 10.0 mi NNW 9.2 mph - N/A   Clear
7:52 PM -0.0 °F -14.2 °F -4.0 °F 83% 30.66 in 10.0 mi NNW 8.1 mph - N/A   Clear
8:52 PM -0.9 °F -16.4 °F -6.0 °F 79% 30.66 in 9.0 mi North 9.2 mph - N/A   Clear
9:52 PM -6.0 °F -18.6 °F -9.9 °F 83% 30.69 in 10.0 mi North 5.8 mph - N/A   Clear
10:52 PM -6.0 °F - -11.0 °F 79% 30.69 in 7.0 mi Calm Calm - N/A   Clear
11:52 PM -7.1 °F - -11.0 °F 83% 30.67 in 6.0 mi Calm Calm - N/A   Clear